This is the latest recevied weather packets stored in our database for station/object KE5OYL. If no packets are shown the sender has not sent any weather packets the latest 1 day(s).
| Time | Temp. | Humidity | Pressure | Rain* | Wind** | Luminosity | Snow |
|---|---|---|---|---|---|---|---|
| 1778102352 | 16.11° C | 74% | 1013.9 hPa | 0 mm | - | 183 W/m² | - |
| 1778101442 | 16.11° C | 74% | 1014.4 hPa | 0 mm | - | 138 W/m² | - |
| 1778100835 | 16.11° C | 74% | 1014.1 hPa | 0 mm | - | 216 W/m² | - |
| 1778099927 | 15.56° C | 75% | 1014.5 hPa | 0 mm | - | 133 W/m² | - |
| 1778099624 | 15.56° C | 76% | 1014.6 hPa | 0 mm | - | 158 W/m² | - |
| 1778098412 | 15.56° C | 76% | 1014.5 hPa | 0 mm | - | 286 W/m² | - |
| 1778098108 | 15.56° C | 76% | 1014.9 hPa | 0 mm | - | 269 W/m² | - |
| 1778096895 | 15° C | 78% | 1014.9 hPa | 0 mm | - | 254 W/m² | - |
| 1778095682 | 15° C | 78% | 1015.1 hPa | 0 mm | - | 469 W/m² | - |
| 1778095076 | 14.44° C | 80% | 1015.3 hPa | 0 mm | - | 334 W/m² | - |
| 1778094469 | 13.89° C | 81% | 1015.5 hPa | 0 mm | - | 185 W/m² | - |
| 1778093863 | 13.89° C | 81% | 1015.3 hPa | 0 mm | - | 151 W/m² | - |
| 1778093559 | 13.89° C | 81% | 1015.2 hPa | 0 mm | - | 210 W/m² | - |
| 1778092949 | 13.89° C | 82% | 1015.1 hPa | 0 mm | - | 171 W/m² | - |
| 1778090828 | 13.89° C | 82% | 1014 hPa | 0 mm | - | 204 W/m² | - |
| 1778090220 | 13.33° C | 83% | 1013.8 hPa | 0 mm | - | 234 W/m² | - |
| 1778089917 | 13.33° C | 83% | 1013.7 hPa | 0 mm | - | 263 W/m² | - |
| 1778089615 | 13.33° C | 83% | 1014 hPa | 0 mm | - | 221 W/m² | - |
| 1778088706 | 13.33° C | 83% | 1014.4 hPa | 0 mm | - | 243 W/m² | - |
| 1778088403 | 13.33° C | 84% | 1014.8 hPa | 0 mm | - | 243 W/m² | - |
| 1778086576 | 12.78° C | 85% | 1015 hPa | 0 mm | - | 113 W/m² | - |
| 1778085362 | 12.78° C | 86% | 1015.1 hPa | 0 mm | - | 80 W/m² | - |
| 1778084446 | 12.78° C | 87% | 1015.2 hPa | 0 mm | - | 224 W/m² | - |
| 1778083840 | 12.22° C | 89% | 1015.4 hPa | 0 mm | - | 438 W/m² | - |
| 1778081224 | 12.22° C | 89% | 1013.9 hPa | 4.83 mm | - | 120 W/m² | - |
* Rain latest hour (hover to see other rain measurements)
** Current wind speed in m/s (hover to see current wind gust speed)